Temp_Advection
nan nan nan nan nan nan nan nan nan nan nan nan nan nan nan nan nan nan nan nan nan nan nan nan nan nan nan nan nan nan nan nan nan nan nan nan nan nan nan nan nan nan nan nan nan nan nan nan nan nan nan nan nan nan
nan 0 -0 0 -0 -0 0 -0 0 0 0 0 0 0 0 0 0 0 0 0 0 0 0 0 0 0 0 0 -1 -0 -0 -0 -1 -1 -0 0 -0 0 -0 -0 -0 -0 -0 -0 -0 -1 -1 -0 -0 1 1 -0 -0 nan
nan -0 -0 -0 -0 -0 -0 -0 -0 0 0 0 0 0 0 0 0 0 0 0 0 -0 -0 -0 -0 0 0 0 0 0 -0 0 0 0 -1 -0 -0 -0 -0 0 -0 -0 1 0 -0 -1 -0 0 0 -0 0 1 0 nan
nan -0 0 -0 -0 -0 -0 -0 -0 0 -0 -0 0 0 0 0 0 0 0 0 0 0 -0 -0 0 0 0 0 0 0 0 0 0 1 1 -0 -0 -0 0 0 0 -0 0 -0 -1 -0 -0 -1 0 0 0 0 0 nan
nan 0 -0 0 0 -0 0 0 0 -0 0 0 -0 0 0 0 0 0 0 0 -0 0 -0 -1 -0 -0 0 0 0 0 0 1 1 1 0 -0 -0 -0 0 0 -0 -1 -0 -0 -1 -1 0 1 0 -0 0 -0 -0 nan
nan 0 0 0 1 1 1 0 -0 0 0 -0 0 0 0 0 0 0 0 -0 -1 0 1 -0 -1 -0 0 0 1 0 0 0 1 0 -0 -1 -0 0 0 -1 -2 0 1 1 0 -0 1 1 0 -0 -0 0 0 nan
nan 0 0 0 0 0 1 1 0 0 0 -0 0 0 0 0 0 0 -0 -0 0 1 0 0 0 -0 0 0 0 0 0 1 0 0 0 -0 1 1 -0 -2 -1 0 0 0 1 0 0 0 0 0 0 0 0 nan
nan -0 0 0 0 0 0 0 0 0 0 0 0 0 0 0 0 0 0 0 0 0 0 0 -0 -0 0 0 0 0 0 0 0 0 0 0 0 0 -0 -2 -0 0 -0 -0 -0 0 0 0 0 0 -0 -0 0 nan
nan 0 0 0 0 0 -0 -0 0 0 0 0 0 0 1 1 0 0 0 1 1 0 0 0 0 0 0 0 0 -0 0 -0 -0 0 -0 0 0 -0 -0 -1 -1 -0 -0 0 0 0 -0 -0 -0 -0 -0 -0 -0 nan
nan 0 0 0 0 0 0 0 0 0 0 0 0 0 0 0 0 0 0 0 0 0 0 0 0 0 0 0 0 -0 -0 -0 -0 0 -0 0 -0 -1 -0 -1 -1 -0 -0 0 -0 -0 -0 -0 -0 -1 -1 0 0 nan
nan 0 0 0 0 0 0 0 0 0 1 0 0 -0 -0 1 0 0 0 0 0 0 0 0 0 0 0 0 0 0 0 0 0 -0 0 0 -0 -0 -0 0 -0 -0 -0 -0 -0 -0 -0 -0 0 -0 -0 -0 0 nan
nan 0 0 0 0 0 0 1 1 0 0 0 0 -0 0 0 -0 -0 -0 -0 0 0 0 0 0 0 0 0 0 0 0 0 0 -0 -0 0 -0 0 0 -0 -0 -0 -0 -0 -0 0 0 0 0 0 -0 -0 0 nan
nan 0 0 0 0 0 0 0 0 0 0 -0 -0 -0 0 0 0 0 0 0 0 0 -0 -0 0 0 0 0 -0 -0 0 0 -0 -0 0 -0 0 -0 -0 -0 -0 -0 -0 -0 -0 -0 -0 -0 -0 0 0 -0 -0 nan
nan 0 0 0 0 0 0 0 0 0 0 0 -0 0 0 0 0 0 0 0 -0 -0 -0 0 -0 0 -0 0 0 0 0 0 -0 0 0 -0 1 -0 -0 -0 -0 -0 -0 -0 -0 -0 -0 -0 -0 -0 -0 -0 -0 nan
nan 1 1 0 0 0 0 0 0 0 0 -0 -0 0 0 0 0 -0 -0 -0 0 0 0 -0 -0 0 -0 -0 0 -0 -0 -0 0 1 -0 1 -0 -0 -0 -0 -0 -0 -0 -0 -0 -0 -0 -0 -0 -0 -0 -0 -0 nan
nan 0 0 0 0 0 0 0 0 0 -0 -0 -0 -0 0 0 -0 0 0 -0 0 0 0 -0 -0 -0 0 0 0 0 0 0 0 -0 0 -0 -0 -0 -0 -0 -0 -0 -0 -0 -0 -0 -0 -0 -0 -0 -0 -0 -0 nan
nan -0 -0 0 0 0 0 0 0 0 0 -0 -0 -0 -0 -0 0 0 0 0 0 -0 -0 -0 -0 0 -0 -0 -0 0 -0 -1 0 1 -0 -0 -0 -0 -0 -0 -0 -0 -0 -0 -0 -0 -0 -0 -0 -0 -1 -1 -1 nan
nan 0 0 0 0 0 0 0 0 0 0 0 -0 -0 -0 0 0 -0 -0 -0 0 0 -0 -0 0 -0 0 -0 -0 -1 -1 -0 0 -0 0 0 0 0 -0 -0 -0 0 -0 -0 -0 -0 -0 -0 -0 -0 -0 -1 -1 nan
nan 0 0 0 0 0 -0 0 0 0 0 0 -0 0 0 0 -0 -0 -0 0 0 0 0 0 -0 -0 -1 -1 -1 -0 0 0 0 -0 0 -0 -0 -0 -0 -0 0 -0 -0 0 0 0 0 -0 -1 -1 -0 -0 -0 nan
nan 1 0 0 0 0 -0 0 0 0 0 -0 0 0 0 0 0 0 0 0 0 0 0 0 -1 -2 -1 -0 0 0 0 0 0 -0 -0 -0 -0 -0 -0 -0 0 0 -0 0 0 0 1 0 -0 -0 -0 -0 -0 nan
nan 1 0 0 0 0 -0 -0 0 0 0 0 0 0 0 0 0 0 0 1 0 0 -0 -1 -1 -1 -1 0 1 0 0 0 0 0 -0 -0 -0 -0 -0 0 -0 0 0 0 -0 -0 0 0 -0 0 0 0 0 nan
nan 0 0 0 0 0 0 0 0 0 0 0 0 0 0 0 -0 0 0 0 -0 -1 -1 -2 -1 0 0 0 0 0 0 0 0 0 0 0 0 0 0 0 -0 -0 -0 1 0 -0 -1 -0 -0 -1 0 0 0 nan
nan 0 0 0 0 -0 0 0 0 -0 0 0 0 0 0 -0 0 0 0 -0 -1 -2 -0 1 0 0 0 -0 0 0 0 0 0 -0 0 0 -0 0 0 0 0 -0 -2 1 1 -1 -0 -0 -0 -0 -0 -0 -0 nan
nan 0 0 0 -0 -0 0 0 0 0 0 0 -0 -0 -1 -1 1 1 0 -1 -2 0 0 0 1 0 0 -0 -0 -0 0 0 0 -0 0 0 -0 0 0 0 1 1 -0 -1 0 -0 -0 -0 -0 -0 -0 -0 -0 nan
nan 0 0 -0 0 0 0 0 0 0 1 0 0 -1 -1 1 0 0 -1 -4 -1 -0 0 0 0 0 0 -0 -0 -0 0 0 0 0 0 0 -0 -0 -0 -0 1 1 0 -0 -0 -0 -0 -0 -0 -0 0 0 0 nan
nan 0 0 0 -0 -0 0 -0 -0 1 0 -0 -1 -1 1 -0 0 -1 -1 -2 -0 0 0 -0 0 0 -0 -0 -0 -0 -0 -0 0 0 0 0 0 -0 -1 -1 -1 1 1 -0 -0 -0 -1 -1 -0 -0 -0 -0 0 nan
nan -0 0 -0 -0 -0 -0 0 0 -0 -0 -1 -0 0 0 -0 -1 -2 -2 0 -0 -0 0 0 0 0 0 -0 -1 -1 -0 -0 -0 0 0 1 1 0 0 0 -0 -0 0 0 -0 -1 -1 -0 -0 -0 -1 -0 0 nan
nan -0 -0 -0 -0 0 -0 -0 -0 -1 -1 -1 -1 0 -1 -1 -2 -2 -0 0 0 -0 -0 0 0 0 0 0 -0 -1 -1 -0 0 0 0 0 0 0 -0 -0 0 -0 -0 1 1 -0 -1 -0 -0 -0 -0 -0 -0 nan
nan -0 -0 -0 0 0 -0 -1 -2 -2 -1 2 -0 -1 -4 -2 1 -0 -0 -0 -0 -0 -0 -0 -0 0 1 0 -0 -0 -0 -0 -0 -0 0 -0 -0 -0 0 -0 -0 -0 -0 -0 0 0 0 -0 -0 -0 -0 -0 -0 nan
nan -0 0 0 0 -0 -1 -1 -1 -0 0 0 1 1 0 -0 -1 -0 -0 0 -0 -1 -0 -0 0 0 -0 -0 -0 0 0 0 0 0 0 -0 -0 -0 0 0 -1 -0 -0 -0 -0 -0 -0 -0 -0 -0 -0 -0 -0 nan
nan -0 0 1 -1 -2 -0 0 0 0 0 -0 -0 0 0 -0 0 0 0 0 -0 -0 0 -0 -0 -0 -0 -0 0 0 0 0 0 0 0 -0 -0 -0 -0 -0 -0 -0 -0 -0 -0 -0 -0 -0 -0 -0 -0 -0 -0 nan
nan 0 1 0 -3 -1 0 -0 -0 -0 -0 0 -0 -0 1 1 1 1 0 -0 -0 -0 -0 -0 -0 -0 -0 -0 -0 -0 -0 -0 -0 -0 -0 -0 -0 -0 -0 -0 -0 -0 -0 -0 -0 -0 -0 -0 -0 -0 -0 -0 -0 nan
nan nan nan nan nan nan nan nan nan nan nan nan nan nan nan nan nan nan nan nan nan nan nan nan nan nan nan nan nan nan nan nan nan nan nan nan nan nan nan nan nan nan nan nan nan nan nan nan nan nan nan nan nan nan
Wind_Speed
24 43 36 35 31 29 27 25 24 21 19 18 15 13 12 11 10 10 9 9 9 5 6 9 8 7 7 6 4 6 3 1 4 2 3 4 3 5 1 4 4 4 3 4 2 3 8 2 1 5 10 22 25 28
11 28 41 38 34 32 30 27 25 23 21 19 17 15 12 10 10 9 9 9 8 7 5 13 14 12 12 10 7 11 4 5 10 4 1 2 3 2 4 5 2 3 8 4 9 6 7 7 15 31 25 29 24 15
17 13 33 39 37 34 32 30 27 25 23 21 19 17 15 13 11 10 8 7 7 7 12 17 18 16 15 12 12 8 10 10 7 10 10 3 4 3 4 5 3 4 11 4 4 8 21 21 36 41 37 18 9 7
7 16 16 36 37 36 34 32 30 28 25 22 21 19 17 14 13 12 11 9 8 3 2 9 12 13 13 13 15 18 21 14 14 11 8 3 3 12 4 6 6 8 3 5 13 20 28 32 30 23 14 9 8 8
6 13 10 23 35 34 34 33 31 29 29 25 24 22 19 18 16 15 13 11 10 9 3 6 11 12 11 14 18 20 21 22 19 8 5 3 5 3 5 2 3 13 8 5 11 26 24 28 18 11 5 7 8 15
4 3 10 6 22 35 37 34 31 32 29 26 27 25 21 20 17 15 10 19 16 17 6 2 10 19 19 20 19 21 21 21 21 10 6 7 15 10 3 4 14 26 27 28 29 34 24 23 8 3 5 9 11 17
6 5 6 6 4 9 25 32 36 31 28 31 27 23 24 23 21 19 6 4 11 19 5 5 5 5 15 20 20 18 21 20 14 8 8 14 17 10 2 11 17 17 30 29 25 20 13 2 1 7 12 16 19 23
6 7 7 9 9 8 3 10 20 27 28 26 25 23 20 20 19 20 21 12 10 16 7 3 3 3 3 2 4 4 3 5 8 6 3 5 2 9 5 15 22 19 16 17 17 10 7 2 7 10 15 19 21 19
9 8 8 8 8 10 13 14 11 11 15 21 20 18 21 20 14 16 19 16 17 9 4 3 2 2 3 1 1 0 2 1 2 3 3 2 1 4 5 10 22 27 21 17 5 5 7 8 10 15 19 21 22 23
11 7 7 7 8 8 9 11 15 17 16 18 21 9 6 8 11 12 7 2 6 5 6 4 5 2 5 7 3 1 2 2 2 2 4 1 3 9 12 17 14 9 4 9 9 5 7 14 23 25 27 24 23 24
13 10 8 7 7 11 11 12 15 19 22 17 7 5 12 15 6 4 3 4 3 3 3 3 9 2 4 3 2 5 1 1 2 3 1 2 2 8 11 12 14 11 10 11 10 11 20 25 25 24 26 25 24 23
16 14 11 11 11 12 15 18 23 21 13 11 9 15 12 3 2 3 1 1 2 3 3 3 4 6 4 4 3 2 2 1 4 2 1 2 3 5 9 10 9 10 12 13 16 19 20 19 19 21 25 26 24 24
18 18 15 13 12 13 14 17 16 13 16 17 4 5 4 2 3 4 6 2 2 3 6 6 2 3 3 3 3 2 3 4 1 1 3 4 2 7 10 12 14 15 13 14 18 21 23 24 23 25 27 29 30 29
20 21 19 16 13 16 16 16 16 17 8 3 4 4 3 3 2 3 3 3 5 4 8 10 4 1 2 2 2 2 2 0 1 2 5 2 6 10 11 11 12 15 18 22 27 25 24 25 27 29 29 31 30 29
23 24 22 19 15 16 16 16 15 12 3 2 4 3 2 2 3 4 4 5 4 9 10 6 4 3 1 2 1 2 0 3 4 4 2 4 9 9 10 12 17 22 25 25 26 28 29 30 31 32 31 30 29 30
25 23 25 22 18 16 14 15 12 5 2 2 2 4 4 5 4 5 6 5 6 10 6 3 3 3 3 3 2 5 5 6 4 4 2 7 8 6 19 21 24 25 24 26 28 30 31 31 31 30 31 30 29 26
29 19 26 23 21 17 15 12 6 3 2 2 2 4 10 3 7 8 9 7 10 10 2 3 3 8 3 3 2 4 5 3 6 10 7 6 12 21 23 24 23 23 28 27 29 31 32 33 31 32 31 31 29 23
23 23 24 25 25 19 16 9 5 4 2 3 4 6 9 4 6 7 10 10 11 7 5 3 2 2 5 5 3 4 7 4 13 11 19 28 26 23 21 21 24 27 27 29 30 31 36 34 32 33 32 34 29 23
22 22 23 21 21 15 4 4 3 3 3 3 5 5 6 5 8 5 6 10 13 7 3 3 1 3 4 7 6 11 12 15 19 28 32 28 21 19 21 25 26 26 27 30 31 33 33 28 26 27 29 27 26 23
18 23 24 23 19 4 4 4 6 3 5 5 5 7 5 3 3 5 9 12 13 10 7 5 7 9 11 19 21 25 28 28 29 30 29 26 23 25 26 25 24 25 28 32 33 31 32 32 33 31 28 26 24 24
24 24 21 21 13 4 3 5 4 4 4 3 3 5 2 5 8 9 10 12 11 6 5 14 26 32 34 35 35 33 32 27 24 21 25 31 29 27 25 23 23 25 30 33 32 30 27 31 32 31 28 24 23 20
26 24 23 13 3 4 3 5 3 5 3 3 3 4 3 3 5 7 8 8 6 14 22 30 32 31 31 31 26 25 25 24 24 25 25 23 26 24 24 23 26 29 32 32 30 26 28 28 26 28 25 23 16 13
27 20 9 3 3 3 3 8 3 4 3 3 3 2 3 4 4 6 4 7 9 21 24 28 27 27 29 30 30 31 28 28 28 24 20 18 17 19 23 24 27 29 32 33 28 24 23 24 24 24 20 14 9 6
18 7 4 5 2 2 5 3 3 3 4 2 2 2 3 6 5 5 3 6 22 24 25 27 29 30 26 25 23 20 17 17 19 18 14 13 17 21 23 27 29 29 28 29 25 20 20 23 23 18 16 13 7 10
6 3 3 3 3 4 4 1 1 2 3 2 2 4 5 6 2 2 4 14 25 23 18 15 15 14 15 15 15 15 14 16 16 14 14 19 24 27 29 31 31 27 20 19 20 20 22 23 23 19 17 15 15 15
3 5 8 9 6 4 5 4 4 5 3 2 6 4 4 3 1 5 4 11 15 20 18 14 9 5 7 13 19 23 22 18 18 23 26 25 25 26 30 32 31 28 21 19 21 24 25 23 22 21 20 17 17 18
3 5 7 8 7 5 3 3 4 3 4 5 3 2 3 3 6 6 10 10 11 14 11 6 12 17 24 31 33 35 31 26 27 27 29 28 26 28 26 25 25 25 25 26 29 29 28 27 24 23 23 22 20 19
5 9 7 13 8 10 5 3 4 6 4 7 5 4 7 8 6 12 20 24 26 23 23 29 33 36 37 30 26 26 24 23 23 25 25 24 22 21 17 16 18 21 26 23 20 21 20 19 21 22 23 24 25 24
5 5 10 7 6 6 10 10 8 10 14 13 7 4 11 24 29 32 32 30 30 32 35 36 36 31 29 25 21 19 19 19 20 20 20 19 15 13 16 19 18 17 16 16 16 15 15 16 19 21 23 24 24 24
6 13 7 6 6 6 13 16 20 23 23 24 25 29 31 32 32 32 35 34 31 30 30 30 29 23 20 18 16 15 17 17 15 14 16 16 15 16 16 15 15 13 13 13 13 12 14 15 15 14 14 13 12 11
4 9 6 7 8 18 24 26 28 30 31 31 31 32 34 34 28 24 24 23 22 22 21 19 18 18 15 14 12 10 9 11 13 12 12 15 14 12 12 12 12 13 13 14 15 15 15 15 14 14 14 13 12 10
6 8 6 3 12 21 23 24 24 24 26 28 29 29 30 23 13 9 13 14 11 10 9 9 9 9 8 8 9 10 10 9 9 11 10 9 9 10 11 12 13 14 15 15 15 15 15 16 16 16 15 14 13 11
7 10 12 7 3 3 5 10 7 8 17 25 27 27 24 13 4 1 4 8 8 9 9 8 7 5 4 2 4 5 5 6 7 8 8 9 10 11 12 13 15 16 16 17 17 17 17 16 15 14 12 10 8 8
Wind_Direction
207 202 208 207 206 204 204 204 204 202 202 202 203 203 199 193 191 196 199 200 204 197 197 213 210 183 166 174 137 159 82 231 71 102 133 211 160 229 181 237 202 177 214 220 136 207 278 168 168 151 272 296 303 309
223 200 206 207 204 205 206 206 206 207 206 205 204 205 209 210 206 201 205 208 212 214 230 227 234 235 232 225 194 187 218 169 197 101 206 107 211 149 198 264 140 239 204 207 184 218 246 210 280 301 303 310 313 302
228 208 200 209 207 207 209 210 209 210 212 211 210 211 214 217 220 221 221 219 227 252 263 254 249 246 245 246 230 213 231 229 220 222 172 189 215 137 199 231 234 300 263 239 331 250 270 286 293 299 300 304 321 350
235 217 207 207 208 209 211 213 214 215 217 217 214 214 220 224 225 230 233 228 225 242 267 260 255 244 245 248 241 246 247 247 248 239 210 172 184 205 200 223 198 226 226 237 260 278 282 281 286 304 298 281 280 292
306 193 217 203 206 209 211 214 217 218 220 220 221 221 222 224 230 238 246 246 233 223 246 275 276 264 276 251 247 244 244 248 249 226 188 215 215 192 211 170 188 200 232 239 262 272 275 290 314 302 305 3 3 341
260 173 203 145 198 208 215 214 217 217 218 218 221 221 220 224 229 239 248 252 242 249 262 275 253 253 253 242 237 243 247 248 247 249 234 228 232 215 223 233 241 257 256 248 268 283 293 305 307 62 21 13 337 312
222 204 177 177 146 176 197 208 214 212 216 218 217 217 219 223 225 212 204 193 212 220 239 274 264 246 243 241 245 254 257 249 239 243 220 244 245 227 216 264 268 268 284 289 297 293 304 292 335 27 342 328 315 306
201 187 178 176 189 187 173 190 191 202 205 207 210 213 211 210 217 224 229 210 199 197 217 225 264 271 227 198 195 214 231 224 223 238 227 237 205 211 242 259 281 294 313 314 310 283 246 254 17 348 333 321 315 316
195 186 168 158 162 181 193 200 197 194 199 203 198 203 205 210 207 217 226 222 204 238 242 203 155 227 211 163 88 345 306 318 297 271 256 258 200 225 252 298 307 312 308 300 202 135 92 11 332 337 336 327 318 314
192 172 156 158 168 170 160 173 181 182 178 178 182 175 151 165 156 149 145 172 200 225 227 193 189 200 178 188 146 43 328 312 296 256 301 256 274 298 326 330 327 348 68 138 119 67 20 7 351 337 330 325 318 316
191 181 164 153 150 158 149 141 151 154 150 153 156 118 130 136 129 144 130 171 199 239 207 206 205 134 169 133 162 212 178 172 255 270 226 287 293 341 20 53 62 74 86 82 56 17 340 333 329 325 329 326 322 318
182 181 171 157 147 146 151 144 149 151 156 164 160 131 134 141 102 102 132 81 192 232 195 178 197 190 147 161 156 178 173 205 248 314 278 276 248 38 55 50 40 20 6 343 334 326 323 318 315 316 325 323 318 317
178 176 171 160 151 153 146 151 160 157 144 132 126 122 139 118 157 195 188 195 209 202 177 177 148 154 137 147 120 134 195 225 278 302 240 223 28 41 33 10 350 344 333 328 326 322 318 312 312 312 318 324 317 313
181 177 174 166 155 156 150 151 156 158 147 128 142 126 187 183 221 174 179 182 211 203 176 176 119 120 92 92 126 179 265 84 268 225 232 257 64 6 352 349 337 332 320 315 318 317 316 317 314 314 314 321 316 306
180 177 175 171 165 163 168 169 170 164 114 124 135 173 174 137 141 151 162 167 164 169 155 123 101 131 77 92 198 72 319 247 231 229 223 100 349 340 337 334 328 325 320 321 323 320 317 317 316 313 312 315 312 311
174 172 182 175 171 168 168 175 176 150 75 106 110 91 135 163 178 191 198 198 171 172 154 122 119 68 254 138 87 211 160 222 245 195 111 317 312 316 330 330 327 323 320 321 320 319 318 317 317 315 312 314 317 310
168 171 173 172 176 173 173 176 165 163 173 141 129 175 179 183 196 202 200 199 190 163 165 135 136 217 108 63 248 181 208 228 134 334 346 341 319 322 325 323 323 318 322 317 321 321 319 317 315 314 313 313 320 308
174 167 165 176 175 172 177 169 162 173 151 185 176 190 193 183 164 188 202 204 199 199 168 211 169 128 194 187 251 234 230 246 319 323 324 325 323 319 318 318 321 321 318 320 321 320 320 318 316 316 315 315 313 301
169 163 172 179 182 173 133 141 139 170 190 182 198 195 203 223 228 221 190 208 217 198 189 201 115 205 229 221 251 295 308 315 311 309 310 313 317 315 316 319 318 318 319 320 321 322 324 322 325 324 326 321 314 310
162 166 167 169 163 123 115 135 163 169 182 191 203 210 208 199 207 231 220 211 218 233 228 210 219 237 257 274 283 290 297 303 306 309 308 308 313 315 317 317 317 319 319 321 322 323 329 329 332 332 323 321 316 306
153 163 172 175 161 113 138 157 155 167 158 175 190 209 237 243 250 241 240 229 218 224 240 251 261 264 269 275 280 288 293 299 299 302 302 304 310 313 315 317 315 315 322 321 320 320 325 327 327 327 322 314 312 307
157 169 161 154 111 140 129 152 140 147 150 140 167 201 222 223 227 228 197 185 230 237 238 255 268 277 283 288 297 299 300 298 296 296 298 300 303 308 311 313 311 314 319 319 321 318 320 324 323 325 323 315 303 302
157 158 135 106 131 121 114 157 151 166 122 192 193 225 231 222 228 202 222 219 236 261 271 271 280 286 287 294 293 292 292 290 290 293 294 293 295 301 307 308 306 311 316 317 316 312 314 321 317 326 336 323 296 218
152 130 136 167 110 111 129 158 194 199 196 190 132 283 254 218 197 215 239 226 265 281 279 286 289 290 291 292 296 301 300 297 294 290 278 289 305 315 311 307 306 308 313 317 314 308 308 315 316 312 307 310 291 262
140 160 164 133 153 146 167 243 189 152 228 197 115 285 242 201 164 233 222 268 283 296 305 308 305 297 299 308 313 313 302 293 278 265 274 301 310 315 313 312 308 311 327 319 323 318 304 309 306 302 291 286 288 285
122 169 175 181 173 166 184 160 204 211 162 198 228 240 206 136 118 243 231 282 301 313 313 305 285 296 329 331 322 318 315 308 289 285 294 300 301 306 309 310 306 310 324 320 312 308 307 309 300 302 297 287 282 281
187 190 191 188 193 183 172 199 175 155 168 204 234 179 119 196 238 245 276 286 313 315 300 293 311 302 300 302 304 303 301 291 284 286 288 290 294 300 303 294 294 300 307 306 305 304 299 297 298 291 291 288 285 280
226 179 176 188 194 203 168 167 168 203 222 206 167 180 194 200 228 279 291 295 299 299 293 298 300 300 301 298 299 302 302 293 279 270 276 286 298 305 304 286 286 290 298 308 313 317 313 302 300 300 295 288 285 283
205 203 192 186 180 195 213 204 218 222 234 224 192 234 254 270 285 293 296 299 298 295 294 295 297 298 295 299 303 307 301 296 298 294 295 305 311 305 298 299 304 308 314 320 325 327 318 313 311 307 302 296 292 286
221 189 195 198 188 214 233 240 259 273 276 275 276 280 281 284 289 291 290 290 290 290 291 292 296 299 301 295 293 291 288 288 285 291 295 295 298 305 307 310 314 320 322 325 332 337 337 336 335 339 349 348 340 325
212 191 214 225 231 257 269 280 284 284 284 282 282 278 277 283 282 282 280 284 285 284 286 289 286 284 279 280 281 277 271 280 287 288 288 297 304 308 313 319 321 321 322 323 323 325 328 332 337 337 338 339 339 335
209 209 207 227 269 293 294 290 287 284 287 283 277 279 276 263 251 253 287 290 286 281 287 289 283 272 279 289 299 306 302 295 292 298 299 298 303 311 314 315 315 314 313 312 313 312 312 313 315 317 318 318 315 314
246 252 260 275 273 265 301 305 276 275 276 268 267 269 266 251 134 38 339 346 343 338 333 331 327 315 317 313 308 305 301 309 318 317 315 315 318 319 319 319 318 316 313 310 307 306 306 309 312 315 317 315 299 281
Height
1470 1476 1483 1489 1494 1499 1504 1509 1512 1516 1519 1522 1526 1529 1531 1533 1534 1536 1538 1539 1542 1543 1544 1545 1546 1547 1548 1550 1555 1556 1559 1557 1562 1570 1577 1576 1584 1571 1569 1561 1562 1564 1569 1571 1567 1565 1557 1523 1524 1531 1523 1516 1515 1512
1469 1471 1477 1483 1489 1495 1501 1505 1509 1513 1517 1521 1524 1527 1530 1532 1534 1535 1537 1539 1540 1542 1543 1543 1543 1544 1545 1546 1548 1550 1551 1550 1551 1561 1566 1570 1568 1567 1565 1558 1551 1557 1549 1550 1548 1538 1522 1521 1519 1517 1516 1511 1509 1507
1466 1467 1470 1478 1484 1490 1496 1502 1506 1510 1515 1518 1521 1524 1528 1530 1532 1534 1536 1538 1539 1541 1541 1540 1540 1541 1541 1542 1544 1547 1546 1547 1548 1548 1550 1555 1558 1557 1556 1552 1549 1545 1539 1540 1534 1524 1517 1518 1514 1513 1510 1506 1505 1504
1464 1466 1467 1472 1479 1486 1491 1497 1502 1507 1511 1515 1519 1522 1525 1528 1530 1533 1535 1537 1539 1542 1539 1535 1535 1536 1536 1537 1538 1540 1542 1543 1544 1544 1544 1548 1550 1545 1543 1541 1541 1537 1535 1531 1524 1520 1514 1513 1509 1508 1506 1500 1499 1500
1464 1464 1465 1466 1473 1480 1486 1492 1497 1502 1507 1512 1516 1519 1522 1525 1528 1531 1533 1535 1536 1541 1538 1535 1532 1533 1532 1533 1534 1535 1537 1538 1539 1539 1540 1541 1538 1539 1534 1533 1532 1528 1523 1525 1513 1511 1509 1505 1504 1501 1502 1502 1502 1500
1466 1464 1465 1464 1468 1473 1480 1486 1491 1496 1502 1506 1511 1514 1518 1521 1524 1528 1530 1531 1532 1535 1536 1532 1527 1526 1527 1529 1529 1530 1531 1532 1532 1532 1530 1527 1527 1530 1526 1521 1514 1511 1512 1511 1507 1506 1504 1503 1500 1500 1500 1499 1499 1496
1467 1466 1465 1465 1468 1471 1474 1479 1485 1491 1497 1502 1506 1509 1513 1516 1520 1523 1526 1526 1527 1531 1533 1528 1521 1520 1519 1520 1522 1524 1525 1525 1526 1525 1521 1521 1521 1524 1518 1510 1505 1508 1507 1504 1503 1501 1500 1500 1498 1497 1499 1496 1494 1492
1466 1468 1468 1468 1469 1472 1473 1476 1479 1484 1490 1496 1501 1505 1509 1511 1515 1517 1520 1525 1525 1529 1527 1524 1519 1520 1518 1517 1520 1521 1521 1521 1520 1518 1516 1514 1514 1514 1509 1498 1500 1501 1500 1499 1497 1496 1496 1498 1498 1497 1497 1494 1489 1487
1468 1470 1469 1469 1470 1472 1474 1477 1479 1482 1487 1492 1496 1501 1504 1506 1508 1511 1516 1518 1519 1527 1519 1517 1518 1519 1518 1518 1521 1522 1521 1520 1518 1517 1515 1514 1510 1507 1500 1500 1497 1496 1495 1494 1494 1495 1497 1499 1498 1496 1493 1490 1486 1481
1467 1469 1469 1471 1471 1473 1475 1476 1477 1482 1488 1492 1496 1499 1500 1503 1506 1510 1511 1513 1516 1516 1515 1513 1515 1516 1519 1519 1520 1523 1522 1522 1520 1516 1514 1511 1505 1503 1501 1499 1495 1492 1491 1493 1495 1497 1497 1497 1495 1492 1489 1484 1482 1477
1466 1469 1471 1471 1473 1474 1477 1476 1478 1483 1487 1492 1493 1496 1501 1504 1506 1507 1510 1513 1514 1513 1511 1512 1512 1513 1515 1517 1519 1522 1519 1521 1520 1518 1515 1512 1509 1505 1501 1499 1497 1497 1497 1498 1498 1497 1497 1495 1491 1488 1484 1480 1477 1472
1465 1469 1473 1474 1475 1475 1477 1479 1481 1484 1486 1492 1494 1498 1503 1505 1507 1509 1511 1513 1512 1511 1510 1510 1511 1512 1513 1515 1517 1519 1520 1522 1520 1517 1516 1512 1508 1505 1504 1503 1503 1502 1501 1500 1498 1495 1492 1489 1487 1484 1480 1475 1471 1467
1463 1468 1473 1474 1475 1476 1479 1481 1484 1486 1487 1492 1496 1498 1500 1506 1507 1506 1507 1509 1510 1508 1507 1509 1512 1511 1512 1514 1516 1518 1519 1520 1518 1517 1515 1510 1505 1505 1505 1505 1504 1502 1499 1497 1495 1492 1488 1485 1482 1479 1475 1469 1464 1460
1463 1468 1472 1474 1474 1478 1482 1483 1485 1487 1489 1492 1494 1499 1500 1503 1501 1502 1504 1506 1507 1507 1507 1510 1512 1512 1514 1515 1516 1517 1518 1518 1515 1514 1514 1505 1504 1504 1504 1503 1501 1499 1496 1494 1491 1486 1482 1479 1474 1471 1467 1462 1457 1452
1462 1467 1471 1472 1476 1480 1482 1483 1485 1487 1489 1492 1492 1498 1500 1499 1499 1500 1502 1505 1506 1506 1507 1509 1511 1513 1514 1517 1517 1519 1520 1516 1508 1512 1506 1503 1504 1503 1502 1501 1498 1495 1491 1485 1483 1480 1475 1470 1466 1461 1457 1454 1450 1446
1461 1464 1466 1472 1476 1479 1482 1486 1487 1488 1489 1492 1493 1497 1497 1500 1500 1502 1504 1506 1506 1505 1507 1509 1512 1516 1516 1516 1520 1518 1523 1517 1506 1500 1500 1501 1502 1501 1498 1494 1491 1489 1486 1481 1478 1473 1467 1463 1458 1454 1449 1445 1442 1438
1458 1459 1464 1471 1475 1479 1483 1488 1488 1489 1490 1491 1494 1495 1496 1497 1498 1501 1503 1506 1506 1506 1507 1508 1513 1511 1511 1519 1519 1510 1513 1503 1498 1496 1496 1496 1497 1496 1492 1487 1485 1484 1480 1475 1471 1465 1460 1456 1451 1446 1441 1437 1435 1431
1455 1459 1465 1471 1475 1480 1484 1487 1490 1490 1490 1491 1493 1493 1495 1496 1497 1499 1500 1503 1505 1504 1505 1505 1505 1510 1515 1513 1509 1498 1497 1498 1494 1492 1492 1491 1491 1489 1486 1483 1480 1477 1472 1468 1463 1458 1453 1448 1443 1438 1434 1429 1425 1423
1456 1460 1466 1471 1477 1482 1484 1486 1486 1487 1490 1492 1493 1492 1492 1494 1496 1498 1499 1499 1502 1504 1505 1503 1505 1505 1498 1492 1492 1492 1492 1491 1489 1487 1485 1484 1484 1482 1479 1477 1474 1469 1465 1461 1456 1451 1446 1442 1437 1432 1428 1423 1419 1417
1459 1463 1467 1472 1477 1479 1482 1485 1487 1487 1489 1490 1490 1492 1494 1494 1494 1494 1496 1499 1502 1503 1500 1496 1491 1488 1488 1488 1489 1489 1488 1487 1485 1481 1477 1476 1476 1474 1472 1469 1465 1462 1458 1453 1449 1445 1439 1434 1430 1426 1422 1418 1414 1411
1462 1466 1471 1474 1477 1481 1482 1483 1485 1487 1488 1488 1489 1490 1490 1489 1490 1493 1495 1496 1498 1494 1490 1487 1484 1484 1485 1483 1483 1483 1481 1481 1478 1477 1473 1468 1467 1466 1463 1462 1459 1456 1452 1447 1442 1437 1434 1431 1426 1422 1417 1413 1410 1406
1462 1467 1471 1475 1478 1480 1482 1484 1485 1485 1487 1487 1488 1488 1489 1490 1490 1489 1490 1490 1487 1484 1484 1479 1477 1478 1477 1477 1476 1475 1474 1472 1470 1469 1467 1465 1461 1458 1456 1455 1452 1448 1445 1440 1436 1432 1429 1426 1422 1417 1412 1408 1405 1403
1463 1469 1473 1475 1477 1479 1483 1483 1484 1484 1485 1487 1488 1488 1488 1487 1485 1485 1485 1483 1479 1475 1473 1472 1472 1472 1470 1468 1468 1466 1466 1463 1461 1460 1459 1458 1456 1454 1451 1449 1446 1442 1437 1434 1431 1428 1425 1422 1418 1414 1409 1405 1402 1402
1468 1471 1474 1475 1477 1480 1482 1483 1484 1485 1485 1486 1487 1489 1485 1482 1482 1482 1481 1474 1470 1468 1468 1467 1466 1464 1463 1461 1459 1457 1456 1455 1454 1453 1452 1452 1450 1448 1445 1442 1439 1436 1432 1427 1424 1421 1419 1417 1414 1411 1409 1406 1404 1403
1470 1474 1475 1476 1478 1480 1481 1482 1482 1483 1484 1484 1487 1485 1478 1479 1481 1481 1475 1466 1464 1463 1461 1461 1459 1458 1456 1455 1454 1452 1451 1449 1448 1447 1447 1446 1443 1440 1437 1434 1431 1428 1426 1422 1419 1417 1414 1412 1409 1406 1405 1403 1401 1400
1468 1469 1472 1473 1476 1477 1478 1482 1481 1481 1482 1483 1481 1475 1475 1475 1480 1475 1463 1459 1458 1457 1456 1455 1455 1454 1453 1452 1451 1450 1449 1447 1445 1442 1441 1439 1436 1433 1430 1426 1422 1420 1420 1418 1415 1411 1408 1406 1404 1401 1399 1398 1397 1395
1468 1467 1468 1470 1471 1471 1473 1474 1474 1475 1480 1479 1473 1472 1474 1478 1474 1458 1455 1455 1455 1455 1453 1452 1452 1451 1449 1446 1444 1442 1440 1439 1436 1434 1432 1430 1428 1426 1423 1420 1417 1416 1414 1411 1408 1405 1402 1399 1397 1395 1393 1392 1390 1389
1461 1462 1464 1465 1466 1467 1467 1469 1470 1470 1466 1465 1465 1468 1466 1462 1456 1451 1452 1451 1451 1450 1449 1447 1445 1444 1440 1436 1434 1432 1429 1428 1427 1425 1423 1422 1421 1419 1417 1415 1414 1411 1408 1405 1402 1399 1395 1393 1391 1389 1387 1385 1383 1382
1458 1459 1461 1461 1463 1463 1462 1461 1458 1456 1455 1454 1454 1454 1449 1447 1447 1446 1445 1445 1443 1441 1438 1436 1434 1433 1430 1428 1426 1424 1423 1422 1421 1418 1416 1415 1415 1415 1412 1410 1408 1405 1403 1400 1398 1395 1392 1390 1387 1384 1381 1378 1376 1374
1453 1455 1456 1456 1457 1456 1452 1452 1449 1449 1449 1448 1446 1444 1441 1440 1441 1439 1436 1434 1433 1431 1429 1427 1425 1423 1422 1421 1419 1419 1418 1416 1415 1415 1412 1411 1410 1409 1407 1405 1403 1401 1399 1397 1395 1393 1391 1388 1385 1382 1378 1374 1371 1369
1449 1450 1451 1450 1448 1447 1446 1445 1444 1443 1441 1439 1438 1435 1432 1431 1431 1428 1426 1425 1423 1421 1420 1420 1419 1417 1416 1415 1414 1413 1413 1412 1411 1410 1409 1407 1406 1405 1403 1401 1400 1398 1396 1395 1393 1391 1389 1386 1384 1381 1379 1376 1374 1373
1445 1445 1445 1445 1442 1442 1441 1439 1436 1434 1431 1429 1425 1424 1422 1422 1422 1421 1420 1419 1418 1417 1416 1415 1414 1413 1412 1412 1411 1410 1410 1409 1408 1407 1405 1404 1403 1402 1400 1399 1397 1395 1393 1392 1390 1388 1386 1384 1382 1380 1378 1376 1374 1372
1442 1441 1440 1440 1438 1437 1436 1436 1431 1426 1421 1416 1412 1412 1411 1413 1416 1420 1419 1417 1416 1414 1413 1411 1410 1409 1409 1409 1409 1408 1407 1407 1406 1404 1403 1402 1401 1399 1398 1396 1394 1392 1390 1388 1386 1384 1383 1381 1379 1377 1375 1373 1372 1371